Location: Newark
(31.5350°N, 35.0986°E)
Time: 11:25:11
(UTC+00:00)

SR - Pass Details

Date: 20 October 2019
Orbit: 574 x 882 km, 66.7° (Epoch: 11 November)

Event Time Altitude Azimuth Distance (km) Brightness Sun altitude
Rises 19:54:12 0° 231° (SW) 2,981 - -60.3°
Reaches altitude 10° 19:56:40 10° 242° (WSW) 2,122 - -60.7°
Maximum altitude 20:00:54 30° 303° (WNW) 1,291 - -61.4°
Drops below altitude 10° 20:05:29 10° 4° (N) 2,312 - -62.1°
Sets 20:08:18 0° 15° (NNE) 3,298 - -62.5°
